This is the latest recevied weather packets stored in our database for station/object N0QV. If no packets are shown the sender has not sent any weather packets the latest 10 day(s).
| Time | Temp. | Humidity | Pressure | Rain* | Wind** | Luminosity | Snow |
|---|---|---|---|---|---|---|---|
| 1777891184 | 11.67° C | 54% | 998.6 hPa | 0 mm | - | 0 W/m² | - |
| 1777890883 | 11.67° C | 54% | 998.4 hPa | 0 mm | - | 0 W/m² | - |
| 1777890580 | 11.67° C | 53% | 998.5 hPa | 0 mm | - | 0 W/m² | - |
| 1777890275 | 11.11° C | 54% | 998.6 hPa | 0 mm | - | 0 W/m² | - |
| 1777889972 | 11.11° C | 54% | 998.7 hPa | 0 mm | - | 0 W/m² | - |
| 1777889670 | 11.11° C | 56% | 998.6 hPa | 0 mm | - | 0 W/m² | - |
| 1777889367 | 10.56° C | 55% | 998.8 hPa | 0 mm | - | 0 W/m² | - |
| 1777889064 | 11.11° C | 54% | 998.7 hPa | 0 mm | - | 0 W/m² | - |
| 1777888761 | 11.11° C | 54% | 998.9 hPa | 0 mm | - | 0 W/m² | - |
| 1777888458 | 11.11° C | 54% | 999.3 hPa | 0 mm | - | 0 W/m² | - |
| 1777888154 | 11.11° C | 54% | 999 hPa | 0 mm | - | 0 W/m² | - |
| 1777887852 | 11.11° C | 54% | 999.5 hPa | 0 mm | - | 0 W/m² | - |
| 1777887549 | 11.11° C | 54% | 999.1 hPa | 0 mm | - | 0 W/m² | - |
| 1777887244 | 11.11° C | 53% | 999.1 hPa | 0 mm | - | 0 W/m² | - |
| 1777886940 | 11.11° C | 56% | 999.3 hPa | 0 mm | - | 0 W/m² | - |
| 1777886635 | 11.11° C | 55% | 999.5 hPa | 0 mm | - | 0 W/m² | - |
| 1777886333 | 10.56° C | 56% | 999.5 hPa | 0 mm | - | 0 W/m² | - |
| 1777886031 | 10.56° C | 57% | 999.9 hPa | 0 mm | - | 0 W/m² | - |
| 1777885729 | 10.56° C | 56% | 999.9 hPa | 0 mm | - | 0 W/m² | - |
| 1777885427 | 11.11° C | 54% | 999.9 hPa | 0 mm | - | 0 W/m² | - |
| 1777885126 | 11.11° C | 54% | 999.9 hPa | 0 mm | - | 0 W/m² | - |
| 1777884822 | 11.11° C | 54% | 999.9 hPa | 0 mm | - | 0 W/m² | - |
| 1777884518 | 11.67° C | 54% | 1000.1 hPa | 0 mm | - | 0 W/m² | - |
| 1777884216 | 11.67° C | 53% | 1000 hPa | 0 mm | - | 0 W/m² | - |
| 1777883912 | 12.22° C | 50% | 1000.3 hPa | 0 mm | - | 0 W/m² | - |
* Rain latest hour (hover to see other rain measurements)
** Current wind speed in m/s (hover to see current wind gust speed)